Regional Weather Roundup
Issued by NWS

Home | Current Version | Previous Version | Graphics & Text | Print | Product List | Glossary On
Versions: 1 2 3 4 5 6 7 8 9 10 11 12 13 14 15 16 17 18 19 20 21 22 23 24 25 26 27 28 29 30 31 32 33 34 35 36 37 38 39 40 41 42 43 44 45 46 47 48 49 50
000
ASUS43 KLSX 020507
RWRMO

WEATHER SUMMARY FOR MISSOURI
NATIONAL WEATHER SERVICE SPRINGFIELD MO
1200 AM CDT SAT AUG 02 2014

NOTE: "FAIR" INDICATES FEW OR NO CLOUDS BELOW 12,000 FEET WITH NO
       SIGNIFICANT WEATHER AND/OR OBSTRUCTIONS TO VISIBILITY.
       CURRENT SKY AND/OR WEATHER CONDITIONS ARE NOT AVAILABLE FOR
       CHILLICOTHE AND FARMINGTON.

MOZ001>031-035>038-043-044-053-054-020600-
...NORTHERN AND WESTERN MISSOURI...

CITY           SKY/WX    TMP DP  RH WIND       PRES   REMARKS
KANSAS CTY INT CLEAR     70  62  76 SE7       30.10R
KANSAS C DTWN  CLEAR     74  63  68 E6        30.09R
LEE`S SUMMIT   CLEAR     70  62  76 E6        30.11R
ST JOSEPH      CLEAR     65  62  90 CALM      30.09R
CHILLICOTHE      N/A     64  60  87 CALM      30.12R
KIRKSVILLE     CLEAR     62  60  93 CALM      30.11F

$$
MOZ066>068-077>081-088>096-101>105-020600-
...SOUTHWEST MISSOURI...

CITY           SKY/WX    TMP DP  RH WIND       PRES   REMARKS
SPRINGFIELD    CLOUDY    70  64  81 E5        30.10R
JOPLIN         CLEAR     68  64  87 CALM      30.09R

$$
MOZ032>034-039>042-045>050-055>058-069>072-020600-
...CENTRAL MISSOURI...

CITY           SKY/WX    TMP DP  RH WIND       PRES   REMARKS
COLUMBIA       CLEAR     65  62  90 E6        30.11S
JEFFERSON CITY CLEAR     68  62  81 E5        30.10R
ROLLA          PTCLDY    66  60  81 CALM      30.10S
SEDALIA        CLEAR     68  61  78 SE5       30.11R
WHITEMAN AFB   CLEAR     66  53  63 SE3       30.10R
OSAGE BEACH      N/A     66  59  77 CALM      30.10S

$$
MOZ051-052-059>065-020600-
...EAST CENTRAL MISSOURI...

CITY           SKY/WX    TMP DP  RH WIND       PRES   REMARKS
ST LOUIS INTL  PTCLDY    69  62  78 SW3       30.10S
SPIRIT OF STL  CLEAR     65  64  97 CALM      30.08F FOG
ST CHARLES     CLEAR     64  62  93 CALM      30.09S

$$
MOZ072>076-082>087-097>100-106>115-020600-
...SOUTH CENTRAL AND SOUTHEAST MISSOURI...

CITY           SKY/WX    TMP DP  RH WIND       PRES   REMARKS
CAPE GIRARDEAU MOCLDY    72  64  76 CALM      30.06S
FARMINGTON     CLOUDY    66  61  82 CALM      30.13S
POPLAR BLUFF   PTCLDY    69  65  86 N3        30.06R
WEST PLAINS    CLEAR     66  63  90 CALM      30.12R

$$



USA.gov is the U.S. government's official web portal to all federal, state and local government web resources and services.